Météo par heure à Kyzyl-Mayak

Ce jour, 25 Juillet, Dimanche

Heure Température Précipitation Vent Pression Humidité
00:00 +19°C° 0 mm 2 m/s 744 mmHg 52%
01:00 +19°C° 0 mm 2 m/s 745 mmHg 53%
02:00 +18°C° 0 mm 2 m/s 745 mmHg 57%
03:00 +17°C° 0 mm 2 m/s 745 mmHg 60%
04:00 +17°C° 0 mm 2 m/s 745 mmHg 65%
05:00 +18°C° 0 mm 3 m/s 746 mmHg 64%
06:00 +19°C° 0 mm 3 m/s 746 mmHg 63%
07:00 +20°C° 0 mm 4 m/s 747 mmHg 61%
08:00 +21°C° 0 mm 4 m/s 747 mmHg 56%
09:00 +23°C° 0 mm 4 m/s 747 mmHg 52%
10:00 +25°C° 0 mm 5 m/s 748 mmHg 47%
11:00 +26°C° 0 mm 5 m/s 748 mmHg 42%
12:00 +27°C° 0 mm 5 m/s 748 mmHg 38%
13:00 +27°C° 0 mm 5 m/s 748 mmHg 34%
14:00 +27°C° 0 mm 5 m/s 748 mmHg 32%
15:00 +27°C° 0 mm 5 m/s 748 mmHg 31%
16:00 +27°C° 0 mm 5 m/s 749 mmHg 29%
17:00 +26°C° 0 mm 5 m/s 749 mmHg 31%
18:00 +26°C° 0 mm 5 m/s 749 mmHg 32%
19:00 +25°C° 0 mm 5 m/s 750 mmHg 34%
20:00 +22°C° 0 mm 5 m/s 750 mmHg 36%
21:00 +19°C° 0 mm 4 m/s 750 mmHg 38%
22:00 +17°C° 0 mm 4 m/s 751 mmHg 39%
23:00 +16°C° 0 mm 3 m/s 751 mmHg 42%

Demain, 26 Juillet, Lundi

Heure Température Précipitation Vent Pression Humidité
00:00 +16°C° 0 mm 3 m/s 751 mmHg 44%
01:00 +14°C° 0 mm 3 m/s 752 mmHg 46%
02:00 +13°C° 0 mm 3 m/s 752 mmHg 49%
03:00 +14°C° 0 mm 2 m/s 752 mmHg 51%
04:00 +13°C° 0 mm 2 m/s 752 mmHg 53%
05:00 +15°C° 0 mm 2 m/s 752 mmHg 50%
06:00 +16°C° 0 mm 3 m/s 753 mmHg 46%
07:00 +18°C° 0 mm 3 m/s 753 mmHg 43%
08:00 +19°C° 0 mm 3 m/s 753 mmHg 39%
09:00 +21°C° 0 mm 3 m/s 753 mmHg 35%
10:00 +23°C° 0 mm 4 m/s 753 mmHg 31%
11:00 +23°C° 0 mm 4 m/s 753 mmHg 29%
12:00 +25°C° 0 mm 4 m/s 753 mmHg 28%
13:00 +26°C° 0 mm 4 m/s 753 mmHg 26%
14:00 +26°C° 0 mm 4 m/s 752 mmHg 26%
15:00 +26°C° 0 mm 3 m/s 752 mmHg 25%
16:00 +27°C° 0 mm 3 m/s 752 mmHg 24%
17:00 +26°C° 0 mm 3 m/s 752 mmHg 26%
18:00 +25°C° 0 mm 3 m/s 751 mmHg 29%
19:00 +24°C° 0 mm 3 m/s 751 mmHg 31%
20:00 +22°C° 0 mm 3 m/s 752 mmHg 34%
21:00 +20°C° 0 mm 3 m/s 752 mmHg 38%
22:00 +18°C° 0 mm 3 m/s 752 mmHg 42%
23:00 +17°C° 0 mm 3 m/s 752 mmHg 43%

Après-demain, 27 Juillet, Mardi

Heure Température Précipitation Vent Pression Humidité
00:00 +17°C° 0 mm 2 m/s 752 mmHg 45%
01:00 +16°C° 0 mm 2 m/s 752 mmHg 46%
02:00 +15°C° 0 mm 1 m/s 752 mmHg 48%
03:00 +14°C° 0 mm 1 m/s 752 mmHg 50%
04:00 +14°C° 0 mm 1 m/s 752 mmHg 53%
05:00 +15°C° 0 mm 1 m/s 752 mmHg 48%
06:00 +18°C° 0 mm 1 m/s 752 mmHg 44%
07:00 +20°C° 0 mm 1 m/s 752 mmHg 40%
08:00 +20°C° 0 mm 2 m/s 752 mmHg 37%
09:00 +23°C° 0 mm 2 m/s 752 mmHg 33%
10:00 +25°C° 0 mm 3 m/s 751 mmHg 30%
11:00 +26°C° 0 mm 3 m/s 751 mmHg 28%
12:00 +26°C° 0 mm 3 m/s 751 mmHg 27%
13:00 +27°C° 0 mm 4 m/s 750 mmHg 25%
14:00 +27°C° 0 mm 4 m/s 750 mmHg 26%
15:00 +27°C° 0 mm 5 m/s 749 mmHg 28%
16:00 +27°C° 0 mm 6 m/s 749 mmHg 29%
17:00 +26°C° 0 mm 5 m/s 749 mmHg 31%
18:00 +25°C° 0 mm 4 m/s 749 mmHg 34%
19:00 +23°C° 0 mm 4 m/s 749 mmHg 36%
20:00 +22°C° 0 mm 3 m/s 749 mmHg 41%
21:00 +20°C° 0 mm 2 m/s 748 mmHg 45%
22:00 +19°C° 0 mm 1 m/s 748 mmHg 50%
23:00 +19°C° 0 mm 1 m/s 748 mmHg 52%

28 Juillet, Mercredi

Heure Température Précipitation Vent Pression Humidité
00:00 +18°C° 0 mm 1 m/s 748 mmHg 54%
01:00 +16°C° 0 mm 1 m/s 748 mmHg 57%
02:00 +16°C° 0 mm 1 m/s 748 mmHg 59%
03:00 +16°C° 0 mm 1 m/s 747 mmHg 62%
04:00 +15°C° 0 mm 1 m/s 747 mmHg 64%
05:00 +16°C° 0 mm 2 m/s 747 mmHg 65%
06:00 +17°C° 0 mm 3 m/s 748 mmHg 65%
07:00 +19°C° 0 mm 4 m/s 748 mmHg 66%
08:00 +20°C° 0 mm 4 m/s 748 mmHg 57%
09:00 +22°C° 0 mm 4 m/s 748 mmHg 48%
10:00 +23°C° 0 mm 5 m/s 748 mmHg 39%
11:00 +25°C° 0 mm 5 m/s 747 mmHg 35%
12:00 +26°C° 0 mm 4 m/s 747 mmHg 32%
13:00 +27°C° 0 mm 4 m/s 747 mmHg 29%
14:00 +27°C° 0 mm 5 m/s 747 mmHg 27%
15:00 +28°C° 0 mm 5 m/s 746 mmHg 26%
16:00 +28°C° 0 mm 5 m/s 746 mmHg 24%
17:00 +27°C° 0 mm 5 m/s 746 mmHg 26%
18:00 +26°C° 0 mm 4 m/s 747 mmHg 27%
19:00 +25°C° 0 mm 4 m/s 747 mmHg 28%
20:00 +22°C° 0 mm 3 m/s 747 mmHg 33%
21:00 +19°C° 0 mm 2 m/s 747 mmHg 38%
22:00 +17°C° 0 mm 2 m/s 747 mmHg 43%
23:00 +16°C° 0 mm 1 m/s 747 mmHg 45%

29 Juillet, Jeudi

Heure Température Précipitation Vent Pression Humidité
00:00 +16°C° 0 mm 1 m/s 747 mmHg 47%
01:00 +14°C° 0 mm 0 m/s 747 mmHg 49%
02:00 +14°C° 0 mm 0 m/s 747 mmHg 50%
03:00 +13°C° 0 mm 0 m/s 747 mmHg 52%
04:00 +13°C° 0 mm 0 m/s 747 mmHg 53%
05:00 +16°C° 0 mm 1 m/s 747 mmHg 48%
06:00 +19°C° 0 mm 1 m/s 747 mmHg 44%
07:00 +20°C° 0 mm 1 m/s 747 mmHg 39%
08:00 +23°C° 0 mm 2 m/s 747 mmHg 36%
09:00 +25°C° 0 mm 2 m/s 747 mmHg 33%
10:00 +27°C° 0 mm 3 m/s 746 mmHg 30%
11:00 +28°C° 0 mm 3 m/s 746 mmHg 27%
12:00 +29°C° 0 mm 3 m/s 746 mmHg 25%
13:00 +30°C° 0 mm 3 m/s 745 mmHg 23%
14:00 +32°C° 0 mm 4 m/s 745 mmHg 22%
15:00 +32°C° 0 mm 4 m/s 744 mmHg 22%
16:00 +32°C° 0 mm 5 m/s 744 mmHg 21%
17:00 +30°C° 0 mm 4 m/s 744 mmHg 25%
18:00 +29°C° 0 mm 4 m/s 743 mmHg 29%
19:00 +28°C° 0 mm 4 m/s 743 mmHg 33%
20:00 +26°C° 0 mm 5 m/s 743 mmHg 43%
21:00 +23°C° 0 mm 6 m/s 743 mmHg 53%
22:00 +21°C° 0 mm 6 m/s 744 mmHg 63%
23:00 +20°C° 0.6 mm 5 m/s 743 mmHg 73%

30 Juillet, Vendredi

Heure Température Précipitation Vent Pression Humidité
00:00 +19°C° 0.6 mm 3 m/s 743 mmHg 83%
01:00 +19°C° 0.6 mm 1 m/s 743 mmHg 93%
02:00 +18°C° 0.2 mm 2 m/s 742 mmHg 92%
03:00 +18°C° 0.2 mm 2 m/s 742 mmHg 91%
04:00 +18°C° 0.2 mm 3 m/s 742 mmHg 90%
05:00 +18°C° 0.1 mm 2 m/s 741 mmHg 88%
06:00 +19°C° 0.1 mm 2 m/s 741 mmHg 85%
07:00 +19°C° 0.1 mm 2 m/s 741 mmHg 83%
08:00 +21°C° 0.1 mm 2 m/s 741 mmHg 75%
09:00 +23°C° 0.1 mm 1 m/s 741 mmHg 68%
10:00 +25°C° 0.1 mm 1 m/s 741 mmHg 60%
11:00 +25°C° 0.3 mm 2 m/s 741 mmHg 61%
12:00 +25°C° 0.3 mm 3 m/s 741 mmHg 61%
13:00 +25°C° 0.3 mm 4 m/s 741 mmHg 62%
14:00 +24°C° 0.3 mm 3 m/s 742 mmHg 66%
15:00 +22°C° 0.3 mm 3 m/s 742 mmHg 71%
16:00 +21°C° 0.3 mm 2 m/s 742 mmHg 75%
17:00 +23°C° 0 mm 2 m/s 743 mmHg 73%
18:00 +23°C° 0 mm 2 m/s 743 mmHg 71%
19:00 +23°C° 0 mm 2 m/s 743 mmHg 69%
20:00 +22°C° 0 mm 1 m/s 743 mmHg 75%
21:00 +21°C° 0 mm 1 m/s 744 mmHg 80%
22:00 +19°C° 0 mm 1 m/s 744 mmHg 85%
23:00 +19°C° 0 mm 1 m/s 744 mmHg 87%
Voir plus

Nous avons besoin de votre consentement

Meteoprog et ses fournisseurs de services peuvent stocker et accéder à des données personnelles telles que des cookies, des identifiants d'appareils ou d'autres technologies similaires sur votre appareil et traiter ces données pour personnaliser le contenu et les publicités, ainsi que pour fournir des fonctionnalités de médias sociaux et analyser le trafic.

  • Stocker et/ou accéder à des informations sur votre appareil

    Des cookies, des identifiants d'appareils ou d'autres informations peuvent être stockés ou accessibles sur votre appareil aux fins indiquées ci-dessus.

  • Annonces et contenus personnalisés, mesure des annonces et des contenus, connaissance de l'audience et développement de produits

    Les annonces et le contenu peuvent être personnalisés en fonction d'un profil. D'autres données peuvent être ajoutées pour mieux personnaliser les annonces et le contenu. Les performances des publicités et du contenu peuvent être mesurées. Il est possible d'obtenir des informations sur le public qui a vu les publicités et le contenu. Ces données peuvent être utilisées pour développer ou améliorer l'expérience de l'utilisateur, les systèmes et les logiciels.

En cliquant sur "J'accepte", vous autorisez l'utilisation de cookies, des identifiants d'appareils, des balises web ou d'autres technologies similaires. Vos paramètres peuvent être modifiés dans le navigateur de votre appareil.

Dans certains cas, des intérêts légitimes peuvent être invoqués plutôt qu'un consentement. Vous pouvez en savoir plus à ce sujet dans notre Politique de confidentialité et de cookies.